[[{"header":{"parameterUnit":"m.s-1","parameterCategory":1,"la1":30.2991,"la2":30.254,"lo1":-89.0895,"lo2":-89.0444,"dy":0.0017,"dx":0.0017,"nx":28,"ny":28,"refTime":"2024-02-27T09:00:00:Z","depth":0,"parameterNumber":2,"parameterNumberName":"U-component_of_WINDS"},"data":[0,0,0,0,0,0,0,0,0,0,0,0,0,0,0,0,0,0,0,0,0,0,0,0,0,0,0,0,0,0,0,0,0,0,0,0,0,0,0,0,0,0,0,0,0,0,0,0,0,0,0,0,0,0,0,0,0,0,2.4897,2.4897,0,2.4891,2.4891,2.4891,2.4867,2.4866,2.4866,2.4865,2.486,2.486,2.4861,0,0,0,0,0,0,0,0,0,0,0,0,0,2.4888,2.4889,2.4897,2.4897,2.4897,2.4891,2.4891,2.4891,2.4867,2.4866,2.4866,2.4865,2.486,2.486,2.4861,0,0,0,0,0,0,0,0,0,0,0,0,0,2.4888,2.4889,2.4897,2.4884,2.4883,2.4891,2.4891,2.4891,2.4867,2.4866,2.4866,2.4865,2.486,2.486,2.4861,2.4881,0,0,2.4863,2.4863,0,0,0,0,0,0,0,0,2.4888,2.4889,2.4886,2.4885,2.4884,2.4879,2.4886,2.4888,2.4867,2.4873,2.4865,2.4864,2.4867,2.4867,2.4868,2.4881,2.488,2.4863,2.4863,2.4863,2.4863,0,0,0,0,0,0,0,2.4888,2.4889,2.4895,2.4886,2.4885,2.4879,2.4878,2.4886,2.4875,2.4873,2.4871,2.4871,2.4866,2.4867,2.4867,2.488,2.4863,2.4863,2.4864,2.4864,2.491,2.4911,0,0,0,0,0,0,2.489,2.4889,2.4895,2.4894,2.4884,2.488,2.4879,2.4881,2.4875,2.4873,2.4871,2.4869,2.4867,2.4867,2.4867,2.4891,2.4863,2.4864,2.4864,2.4909,2.491,2.4911,0,0,0,0,0,0,2.489,2.4891,2.4895,2.4891,2.4891,2.4881,2.4884,2.4882,2.4883,2.4874,2.4872,2.4874,2.4866,2.4866,2.4878,2.489,2.4864,2.4865,2.4908,2.4909,2.4911,2.4937,0,0,0,0,0,0,2.489,2.4891,2.4898,2.4891,2.4892,2.4905,2.4885,2.4882,2.4883,2.4881,2.4876,2.4874,2.4865,2.4877,2.4878,2.489,2.4865,2.4907,2.4909,2.491,2.4935,2.4939,2.4943,0,0,0,0,0,2.489,2.4906,2.4899,2.4899,2.49,2.4906,2.4906,2.4896,2.4885,2.4892,2.4886,2.4874,2.4888,2.4878,2.488,2.4892,2.4906,2.4908,2.491,2.4934,2.4939,2.4943,0,0,0,0,0,0,2.4914,2.4905,2.4897,2.4911,2.491,2.4902,2.4911,2.4901,2.4903,2.4901,2.4887,2.4886,2.49,2.4897,2.4886,2.4911,2.4895,2.4898,2.4913,2.4917,2.4921,2.4922,2.4865,0,0,0,0,0,2.4922,2.4927,2.4918,2.4932,2.4932,2.4922,2.4924,2.4916,2.4914,2.4913,2.4908,2.4907,2.4911,2.4914,2.4917,2.4935,2.4933,2.4944,2.4948,2.4951,2.4953,2.4963,2.4967,2.4918,2.4918,2.4918,0,0,2.4937,2.4932,2.4936,2.4937,2.4935,2.4941,2.4921,2.4928,2.4933,2.4914,2.4925,2.4921,2.4919,2.4933,2.494,2.4931,2.4966,2.4953,2.4956,2.4956,2.4965,2.497,2.4974,2.4919,2.4919,2.4919,0,0,2.4967,2.4964,2.4975,2.4973,2.497,2.4964,2.4966,2.496,2.4957,2.4968,2.4954,2.4959,2.4966,2.4965,2.4966,2.4996,2.4986,2.4998,2.5018,2.5027,2.5031,2.5034,2.5046,2.505,2.5,2.5,2.5,0,2.4986,2.4994,2.4982,2.4991,2.4992,2.4974,2.4986,2.4985,2.4983,2.4985,2.4975,2.4984,2.4982,2.4996,2.5004,2.5004,2.5007,2.4998,2.5031,2.5035,2.5038,2.5048,2.5053,2.5001,2.5001,2.5001,2.5001,0,2.5018,2.5024,2.5034,2.5033,2.5035,2.5045,2.5034,2.5038,2.503,2.5024,2.5035,2.5031,2.5033,2.5036,2.5028,2.505,2.5045,2.5034,2.5017,2.5044,2.5054,2.5058,2.5004,2.5003,2.5003,2.5002,0,0,2.5064,2.5056,2.506,2.506,2.5055,2.506,2.5069,2.5071,2.5075,2.5074,2.5082,2.5089,2.5078,2.5079,2.5071,2.5079,2.5104,2.5067,2.5067,2.5074,2.5128,2.5137,2.5142,2.5097,2.5097,2.5098,2.5128,0,2.5094,2.5109,2.5098,2.5116,2.5121,2.5105,2.5114,2.5112,2.5107,2.5111,2.5106,2.5111,2.5097,2.5097,2.5105,2.5099,2.5115,2.5097,2.5104,2.5105,2.5106,2.5147,2.5156,2.5185,2.5132,2.5133,2.5133,0,2.513,2.5131,2.5149,2.5144,2.5146,2.5153,2.5155,2.5159,2.5157,2.5153,2.5153,2.5143,2.5152,2.5136,2.5149,2.5137,2.5139,2.5137,2.5138,2.5139,2.5121,2.5149,2.5193,2.5198,2.5139,2.5138,2.5138,0,2.5162,2.5168,2.518,2.518,2.5174,2.518,2.5177,2.5174,2.5177,2.5178,2.5179,2.5181,2.5183,2.5185,2.5176,2.5165,2.519,2.5173,2.5187,2.5187,2.5193,2.5193,2.524,2.5194,2.5194,2.5194,2.5194,0,2.5197,2.5208,2.5194,2.5202,2.5214,2.5202,2.5215,2.5211,2.5209,2.5215,2.5201,2.5208,2.5195,2.52,2.5193,2.5205,2.5206,2.5203,2.5201,2.5204,2.5205,2.5206,2.5204,2.5195,2.5195,2.5195,2.5195,0,2.5235,2.5226,2.5238,2.5231,2.523,2.524,2.5234,2.5241,2.5235,2.5243,2.5244,2.5235,2.524,2.5231,2.5236,2.5231,2.5247,2.5242,2.5248,2.5247,2.5262,2.5261,2.5311,2.5317,2.5267,2.5268,2.5268,0,2.5258,2.5266,2.5261,2.5264,2.5262,2.5268,2.527,2.5258,2.5261,2.526,2.5267,2.5271,2.5273,2.5283,2.5277,2.528,2.5275,2.5292,2.5275,2.5279,2.5276,2.5276,2.5277,2.5296,2.5297,2.5297,2.5297,0,2.5299,2.5294,2.5298,2.53,2.5303,2.5304,2.5304,2.5307,2.5295,2.5299,2.5304,2.5306,2.5311,2.5315,2.5317,2.5315,2.5305,2.5303,2.5306,2.531,2.5313,2.5312,2.5258,2.5302,2.5301,2.5301,2.5301,2.5301,2.533,2.5337,2.5335,2.5339,2.5338,2.5339,2.5344,2.5339,2.5343,2.5346,2.5339,2.5346,2.5344,2.5345,2.5345,2.535,2.5343,2.5348,2.5349,2.535,2.5353,2.5312,2.535,2.535,2.535,2.535,2.535,0,2.5371,2.5369,2.5373,2.5374,2.5377,2.5367,2.5366,2.537,2.5376,2.5375,2.5378,2.5385,2.5389,2.5383,2.5387,2.5392,2.5387,2.5394,2.5393,2.5393,2.5359,2.5356,2.5397,2.5397,2.5397,2.5397,2.5397,2.5397,2.5393,2.5405,2.54,2.5411,2.5408,2.5415,2.5415,2.5416,2.5415,2.5423,2.5426,2.5422,2.542,2.5423,2.5426,2.5425,2.5427,2.5435,2.5431,2.54,2.5395,2.5391,2.5388,2.5435,2.5435,2.5464,2.5465,2.5465]},{"header":{"parameterUnit":"m.s-1","parameterCategory":1,"la1":30.2991,"la2":30.254,"lo1":-89.0895,"lo2":-89.0444,"dy":0.0017,"dx":0.0017,"nx":28,"ny":28,"refTime":"2024-02-27T09:00:00:Z","depth":0,"parameterNumber":3,"parameterNumberName":"V-component_of_WINDS"},"data":[0,0,0,0,0,0,0,0,0,0,0,0,0,0,0,0,0,0,0,0,0,0,0,0,0,0,0,0,0,0,0,0,0,0,0,0,0,0,0,0,0,0,0,0,0,0,0,0,0,0,0,0,0,0,0,0,0,0,3.9516,3.9516,0,3.9544,3.9544,3.9544,3.954,3.9539,3.9539,3.9538,3.9564,3.9565,3.9566,0,0,0,0,0,0,0,0,0,0,0,0,0,3.9456,3.9458,3.9516,3.9516,3.9517,3.9544,3.9544,3.9545,3.954,3.9539,3.9538,3.9538,3.9564,3.9565,3.9566,0,0,0,0,0,0,0,0,0,0,0,0,0,3.9483,3.9458,3.9516,3.9518,3.9518,3.9544,3.9544,3.9545,3.954,3.9539,3.9538,3.9538,3.9563,3.9565,3.9567,3.9592,0,0,3.9572,3.9573,0,0,0,0,0,0,0,0,3.9482,3.9485,3.9517,3.9517,3.9518,3.9538,3.9533,3.956,3.954,3.9531,3.9538,3.9537,3.9556,3.9558,3.9565,3.9593,3.9594,3.9572,3.9573,3.9574,3.9574,0,0,0,0,0,0,0,3.948,3.9484,3.9527,3.9517,3.9518,3.9516,3.9519,3.9538,3.9547,3.9532,3.9532,3.9535,3.9556,3.9563,3.9565,3.9594,3.9572,3.9573,3.9575,3.9575,3.9646,3.9647,0,0,0,0,0,0,3.9478,3.9483,3.9526,3.9528,3.9498,3.9518,3.9521,3.9532,3.9547,3.9549,3.9536,3.9535,3.956,3.9563,3.9566,3.9598,3.9574,3.9575,3.9576,3.9645,3.9646,3.9647,0,0,0,0,0,0,3.9476,3.9482,3.9525,3.9505,3.951,3.952,3.9532,3.9533,3.954,3.955,3.9551,3.9542,3.956,3.9564,3.9586,3.9599,3.9576,3.9578,3.9644,3.9646,3.9647,3.9661,0,0,0,0,0,0,3.9475,3.9481,3.9491,3.9505,3.9512,3.9545,3.9533,3.9534,3.9543,3.9543,3.9556,3.9557,3.956,3.9583,3.9588,3.9601,3.9579,3.9643,3.9645,3.9646,3.9659,3.9662,3.9665,0,0,0,0,0,3.9473,3.9493,3.9492,3.9497,3.9524,3.9546,3.9549,3.9552,3.9544,3.9555,3.9561,3.9557,3.9596,3.9586,3.959,3.9604,3.9642,3.9644,3.9646,3.9658,3.9662,3.9665,0,0,0,0,0,0,3.9479,3.9495,3.9494,3.9519,3.9531,3.9545,3.9557,3.9556,3.9569,3.9568,3.957,3.9573,3.9596,3.9602,3.959,3.963,3.9618,3.9621,3.9626,3.9629,3.9632,3.9631,3.958,0,0,0,0,0,3.9483,3.95,3.9513,3.9534,3.954,3.9548,3.9557,3.9559,3.9571,3.9576,3.9583,3.9595,3.961,3.962,3.9634,3.966,3.9663,3.9672,3.9674,3.9677,3.968,3.9695,3.9699,3.9654,3.9654,3.9654,0,0,3.9493,3.9503,3.9513,3.9536,3.9545,3.9562,3.9552,3.957,3.9583,3.9578,3.96,3.9606,3.9619,3.9644,3.9655,3.9649,3.9693,3.9679,3.9681,3.9683,3.9698,3.9702,3.9706,3.9655,3.9655,3.9654,0,0,3.9518,3.9528,3.9548,3.9558,3.9573,3.9578,3.9583,3.9597,3.9601,3.9623,3.9621,3.9635,3.9661,3.9671,3.9679,3.971,3.9707,3.9714,3.973,3.9745,3.9748,3.9752,3.9764,3.9768,3.9716,3.9716,3.9717,0,3.9528,3.9554,3.9558,3.9577,3.9587,3.9585,3.9605,3.9614,3.9632,3.9639,3.9633,3.9666,3.9674,3.9702,3.971,3.9716,3.9722,3.9713,3.9748,3.9751,3.9754,3.9766,3.977,3.9717,3.9717,3.9717,3.9717,0,3.9566,3.9584,3.9598,3.9618,3.9629,3.9648,3.9655,3.9666,3.9667,3.9672,3.9696,3.9705,3.9723,3.9729,3.9729,3.9757,3.9753,3.9747,3.9736,3.9759,3.9771,3.9775,3.9719,3.9718,3.9718,3.9718,0,0,3.9596,3.9619,3.9624,3.9634,3.965,3.9664,3.9683,3.9701,3.9711,3.9724,3.9741,3.9763,3.9758,3.9767,3.9768,3.9781,3.9807,3.9774,3.9774,3.9781,3.984,3.9846,3.9851,3.9805,3.9806,3.9806,3.9839,0,3.9625,3.966,3.9665,3.9696,3.9714,3.9712,3.9729,3.9741,3.9747,3.9762,3.9768,3.9784,3.9776,3.9782,3.9795,3.9801,3.9819,3.9799,3.9821,3.9822,3.9819,3.9856,3.9862,3.9893,3.9844,3.9844,3.9845,0,3.9663,3.9679,3.9713,3.9729,3.9736,3.9751,3.9769,3.9783,3.9796,3.98,3.9811,3.9811,3.9831,3.9818,3.9846,3.9832,3.9841,3.9845,3.9847,3.985,3.9836,3.9862,3.9902,3.9907,3.9851,3.9851,3.985,0,3.9684,3.9713,3.9738,3.9746,3.9764,3.9775,3.9783,3.9796,3.9807,3.9822,3.9829,3.9845,3.9855,3.9867,3.9871,3.9861,3.9899,3.9886,3.9903,3.9903,3.9912,3.9912,3.9956,3.9916,3.9916,3.9916,3.9915,0,3.9716,3.9737,3.9748,3.9763,3.9787,3.9791,3.9814,3.9821,3.9833,3.985,3.9848,3.9863,3.9867,3.9883,3.9886,3.991,3.9913,3.9917,3.9918,3.9918,3.9918,3.9925,3.9923,3.9917,3.9916,3.9916,3.9916,0,3.9744,3.9752,3.9779,3.9795,3.9799,3.9816,3.983,3.9844,3.985,3.9871,3.9876,3.9885,3.9903,3.9909,3.993,3.9933,3.9961,3.9959,3.9957,3.9957,3.9974,3.9973,4.0026,4.0033,3.9986,3.9987,3.9987,0,3.9765,3.9781,3.98,3.9812,3.9821,3.9839,3.9851,3.9855,3.9867,3.9885,3.9897,3.9916,3.9932,3.9962,3.997,3.9987,3.9986,4.0003,3.9989,3.9989,3.9988,3.9988,3.999,4.0007,4.0007,4.0007,4.0008,0,3.9802,3.9805,3.9823,3.9842,3.9856,3.9871,3.9886,3.9895,3.9902,3.9915,3.9935,3.9947,3.9971,3.999,4.0007,4.0015,4.0013,4.0012,4.0017,4.0018,4.0017,4.002,3.9966,4.0011,4.0011,4.0011,4.001,4.001,3.9828,3.9843,3.9859,3.9879,3.989,3.9904,3.9919,3.9928,3.9945,3.9965,3.9967,3.9989,4.0002,4.0026,4.0034,4.0051,4.0046,4.0053,4.0055,4.0057,4.0059,4.0014,4.0054,4.0054,4.0054,4.0054,4.0054,0,3.9866,3.9876,3.9894,3.9916,3.9931,3.9929,3.9945,3.9958,3.9978,3.9991,4.0007,4.003,4.0049,4.0059,4.0077,4.0089,4.0089,4.0094,4.0094,4.0096,4.0062,4.0057,4.0094,4.0094,4.0094,4.0094,4.0094,4.0094,3.9887,3.9914,3.9919,3.9951,3.9961,3.9984,3.9993,4.0006,4.0017,4.0044,4.006,4.0067,4.0079,4.0099,4.0116,4.0118,4.0125,4.0132,4.0133,4.0102,4.0098,4.0094,4.0089,4.0133,4.0133,4.0166,4.0166,4.0167]}]]